ARIANE 40+ R/B

Last updated on Wed Sep 17 2025 00:02:15 GMT+0000 (Coordinated Universal Time)

1 23561U 95021B 25259.43262091 .00000250 00000+0 94035-4 0 9995 2 23561 98.4756 328.0329 0005734 310.0665 60.5909 14.39592735594178
UTC large
Height (km)
Speed (km/s)
/
Latitude / Longitude
Inclination (degrees)
Orbital Period (minutes)
Azimuth
Elevation
Range (km)
Doppler Factor

Next 0 passes for location: London (51.5072 / 0.1276)

Sorry there are no passes over London.